Regional Weather Roundup
Issued by NWS

Home | Current Version | Previous Version | Graphics & Text | Print | Product List | Glossary On
Versions: 1 2 3 4 5 6 7 8 9 10 11 12 13 14 15 16 17 18 19 20 21 22 23 24 25 26 27 28 29 30 31 32 33 34 35 36 37 38 39 40 41 42 43 44 45 46 47 48 49 50
000
ASUS45 KABQ 251901
RWRNM
WEATHER ROUNDUP FOR NEW MEXICO
NATIONAL WEATHER SERVICE ALBUQUERQUE NM
100 PM MDT SAT APR 25 2015

NOTE: "FAIR" MEANS FEW OR NO CLOUDS BELOW 12,000 FEET AGL WITH NO
       SIGNIFICANT WEATHER OR OBSTRUCTIONS TO VISION.

      THIS PRODUCT IS RELEASED AS TWO VERSIONS.  ONE VERSION NEAR
      THE TOP OF THE HOUR CONTAINING PRELIMINARY DATA FROM ALBUQUERQUE
      AND OTHER STATIONS.  A FINAL VERSION WITH ADDITIONAL DATA IS
      ISSUED ABOUT 10 MINUTES AFTER THE HOUR.

NMZ501-503-504-510>518-252000-
NORTHWEST PLATEAU/NORTHCENTRAL MOUNTAINS

CITY           SKY/WX    TMP DP  RH WIND       PRES   REMARKS
FARMINGTON     MOSUNNY   60  34  37 MISG      29.86F
SANTA FE       PTSUNNY   58  28  32 W13G25    29.91F
TAOS           PTSUNNY   55  30  38 SW17G24   29.92F
ANGEL FIRE     FAIR      49  29  45 SW16G28   29.93F

$$
NMZ402-403-502-505>509-252000-
WESTCENTRAL MOUNTAINS/SOUTHWEST MOUNTAINS

CITY           SKY/WX    TMP DP  RH WIND       PRES   REMARKS
GALLUP         PTSUNNY   58  31  35 SW16G23   29.93F
GRANTS         PTSUNNY   59  26  27 SW12G21   29.94F
SILVER CITY      N/A     64  27  24 SW14G24   29.98F

$$
NMZ407-409-411-412-252000-
SOUTHERN DESERTS

CITY           SKY/WX    TMP DP  RH WIND       PRES   REMARKS
DEMING         SUNNY     72  20  14 W15G29    29.92F
ALAMOGORDO     SUNNY     72  28  20 W10G22    29.92F
T OR C         SUNNY     68  28  22 S8        29.88F

$$
NMZ519>523-252000-
CENTRAL VALLEYS/CENTRAL HIGHLANDS

CITY           SKY/WX    TMP DP  RH WIND       PRES   REMARKS
ALBUQUERQUE    PTSUNNY   60  32  34 S9        29.90F
DOUBLE EAGLE   PTSUNNY   61  28  29 W13G23    29.91F
MORIARTY ARPT  CLOUDY    59  27  29 NW10G17   29.93F
CLINES CORNERS PTSUNNY   56  28  34 W21G29    29.91F
BELEN          FAIR      64  28  25 SE8       29.88F
SOCORRO        NOT AVBL

$$
NMZ524>526-539-540-252000-
SOUTHCENTRAL MOUNTAINS

CITY           SKY/WX    TMP DP  RH WIND       PRES   REMARKS
RUIDOSO        NOT AVBL

$$
NMZ527>531-252000-
NORTHEAST HIGHLANDS/NORTHEAST PLAINS

CITY           SKY/WX    TMP DP  RH WIND       PRES   REMARKS
LAS VEGAS      CLOUDY    60  22  23 W16       29.85F
RATON          SUNNY     66  20  17 SW13G21   29.77F
CLAYTON        MOSUNNY   71  22  15 CALM      29.75F

$$
NMZ532>537-252000-
EASTCENTRAL PLAINS

CITY           SKY/WX    TMP DP  RH WIND       PRES   REMARKS
TUCUMCARI      SUNNY     76  25  15 W17G26    29.74F
CANNON AFB     NOT AVBL
CLOVIS AIRPORT SUNNY     73  30  20 W22G32    29.80F

$$
NMZ028-029-538-252000-
SOUTHEAST PLAINS

CITY           SKY/WX    TMP DP  RH WIND       PRES   REMARKS
ROSWELL        SUNNY     75  29  18 SW8G20    29.83F
ARTESIA        SUNNY     77  30  18 SW14G31   29.84F
CARLSBAD       SUNNY     80  28  15 SW20G28   29.84F
HOBBS          SUNNY     73  32  21 SW18G28   29.87F


$$


USA.gov is the U.S. government's official web portal to all federal, state and local government web resources and services.